This is the latest recevied weather packets stored in our database for station/object K1WJY. If no packets are shown the sender has not sent any weather packets the latest 10 day(s).
| Time | Temp. | Humidity | Pressure | Rain* | Wind** | Luminosity | Snow |
|---|---|---|---|---|---|---|---|
| 1777997004 | 13.89° C | 82% | 1011.2 hPa | 0 mm | - | 669 W/m² | - |
| 1777996700 | 13.89° C | 81% | 1011.4 hPa | 0 mm | - | 684 W/m² | - |
| 1777996395 | 14.44° C | 82% | 1011.3 hPa | 0 mm | - | 688 W/m² | - |
| 1777996092 | 13.89° C | 84% | 1011.3 hPa | 0 mm | - | 681 W/m² | - |
| 1777995789 | 13.89° C | 82% | 1011.7 hPa | 0 mm | - | 678 W/m² | - |
| 1777995485 | 14.44° C | 82% | 1011.4 hPa | 0 mm | - | 676 W/m² | - |
| 1777995182 | 14.44° C | 81% | 1011.4 hPa | 0 mm | - | 674 W/m² | - |
| 1777994880 | 14.44° C | 82% | 1011.3 hPa | 0 mm | - | 673 W/m² | - |
| 1777994576 | 14.44° C | 80% | 1011.5 hPa | 0 mm | - | 679 W/m² | - |
| 1777994276 | 14.44° C | 79% | 1011.5 hPa | 0 mm | - | 680 W/m² | - |
| 1777993974 | 14.44° C | 79% | 1011.4 hPa | 0 mm | - | 687 W/m² | - |
| 1777993670 | 15° C | 79% | 1011.7 hPa | 0 mm | - | 697 W/m² | - |
| 1777993368 | 15° C | 80% | 1011.5 hPa | 0 mm | - | 639 W/m² | - |
| 1777993067 | 15° C | 79% | 1011.2 hPa | 0 mm | - | 702 W/m² | - |
| 1777992766 | 15° C | 78% | 1011.6 hPa | 0 mm | - | 694 W/m² | - |
| 1777992463 | 15° C | 79% | 1011.3 hPa | 0 mm | - | 700 W/m² | - |
| 1777992162 | 15° C | 77% | 1011.5 hPa | 0 mm | - | 699 W/m² | - |
| 1777991858 | 15° C | 77% | 1011.7 hPa | 0 mm | - | 704 W/m² | - |
| 1777991556 | 15° C | 77% | 1011.2 hPa | 0 mm | - | 713 W/m² | - |
| 1777991252 | 14.44° C | 77% | 1011.1 hPa | 0 mm | - | 694 W/m² | - |
| 1777990950 | 15° C | 77% | 1011.5 hPa | 0 mm | - | 607 W/m² | - |
| 1777990648 | 15.56° C | 75% | 1011.5 hPa | 0 mm | - | 669 W/m² | - |
| 1777990345 | 15° C | 76% | 1011.3 hPa | 0 mm | - | 615 W/m² | - |
| 1777990040 | 15.56° C | 75% | 1011.6 hPa | 0 mm | - | 718 W/m² | - |
| 1777989737 | 15.56° C | 74% | 1011.6 hPa | 0 mm | - | 648 W/m² | - |
* Rain latest hour (hover to see other rain measurements)
** Current wind speed in m/s (hover to see current wind gust speed)